This is the latest recevied weather packets stored in our database for station/object DG1UDO-13. If no packets are shown the sender has not sent any weather packets the latest 10 day(s).
| Time | Temp. | Humidity | Pressure | Rain* | Wind** | Luminosity | Snow |
|---|---|---|---|---|---|---|---|
| 1777289701 | 10° C | 65% | 1026 hPa | - | - | - | - |
| 1777287901 | 9.44° C | 66% | 1026.1 hPa | - | - | - | - |
| 1777286100 | 8.89° C | 67% | 1026.3 hPa | - | - | - | - |
| 1777284301 | 8.89° C | 66% | 1026.4 hPa | - | - | - | - |
| 1777282501 | 8.89° C | 66% | 1026.5 hPa | - | - | - | - |
| 1777280700 | 7.78° C | 70% | 1026.5 hPa | - | - | - | - |
| 1777278900 | 7.22° C | 73% | 1026.6 hPa | - | - | - | - |
| 1777277101 | 6.67° C | 73% | 1026.3 hPa | - | - | - | - |
| 1777275300 | 6.11° C | 77% | 1026.7 hPa | - | - | - | - |
| 1777273501 | 5.56° C | 79% | 1026.7 hPa | - | - | - | - |
| 1777271700 | 5° C | 87% | 1026.5 hPa | - | - | - | - |
| 1777269901 | 3.89° C | 97% | 1026.7 hPa | - | - | - | - |
| 1777268101 | 2.22° C | 97% | 1026.6 hPa | - | - | - | - |
| 1777266301 | 1.11° C | 98% | 1026.4 hPa | - | - | - | - |
| 1777264501 | 1.11° C | 98% | 1025.9 hPa | - | - | - | - |
| 1777262701 | 0.56° C | 98% | 1026.1 hPa | - | - | - | - |
| 1777260901 | 0° C | 98% | 1026 hPa | - | - | - | - |
| 1777259100 | 0.56° C | 98% | 1026 hPa | - | - | - | - |
| 1777257301 | 1.67° C | 97% | 1026 hPa | - | - | - | - |
| 1777255501 | 1.67° C | 97% | 1025.8 hPa | - | - | - | - |
| 1777253701 | 1.67° C | 96% | 1025.9 hPa | - | - | - | - |
| 1777251901 | 2.78° C | 96% | 1026 hPa | - | - | - | - |
| 1777250101 | 2.78° C | 96% | 1025.9 hPa | - | - | - | - |
| 1777248301 | 2.78° C | 96% | 1026.3 hPa | - | - | - | - |
| 1777246501 | 3.33° C | 96% | 1026.4 hPa | - | - | - | - |
* Rain since midnight (hover to see other rain measurements)
** Current wind speed in m/s (hover to see current wind gust speed)